Location: Newark
(31.9382°N, 81.3138°W)
Time: 04:39:43
(UTC+00:00)

Hubble Space Telescope - Visible Passes

Search period start: 05 April 2020 00:00
Search period end: 15 April 2020 00:00
Orbit: 536 x 540 km, 28.5° (Epoch: 04 April)

Date Brightness Start Highest point End Pass type
(mag) Time Alt. Az. Time Alt. Az. Time Alt. Az.
05 Apr 2.8 00:32:19 10° S 00:34:10 13° SSE 00:35:27 11° SE visible
06 Apr 2.6 00:20:52 10° SSW 00:23:25 16° SSE 00:25:52 10° ESE visible
06 Apr 3.2 02:00:19 10° WSW 02:01:13 16° SW 02:01:13 16° SW visible
07 Apr 2.4 00:09:41 10° SSW 00:12:41 20° SSE 00:15:41 10° ESE visible
07 Apr 2.5 01:49:33 10° WSW 01:51:33 25° SW 01:51:33 25° SW visible
08 Apr 1.7 01:38:50 10° WSW 01:41:46 38° SW 01:41:46 38° SW visible
09 Apr 1.1 01:28:07 10° WSW 01:31:55 49° S 01:31:55 49° S visible
10 Apr 0.9 01:17:26 10° WSW 01:21:26 52° S 01:21:59 48° SSE visible
11 Apr 1.0 01:06:45 10° WSW 01:10:46 53° S 01:12:00 37° SE visible
12 Apr 1.1 00:56:06 10° W 01:00:06 52° S 01:01:59 28° ESE visible
13 Apr 1.2 00:45:26 10° W 00:49:25 49° S 00:51:57 20° ESE visible
13 Apr 3.6 02:26:49 10° WSW 02:27:17 12° WSW 02:27:17 12° WSW visible
14 Apr 1.3 00:34:47 10° W 00:38:45 46° S 00:41:54 15° ESE visible
14 Apr 3.3 02:16:20 10° WSW 02:17:14 14° WSW 02:17:14 14° WSW visible
